Regional Weather Roundup
Issued by NWS

Home | Current Version | Previous Version | Graphics & Text | Print | Product List | Glossary On
Versions: 1 2 3 4 5 6 7 8 9 10 11 12 13 14 15 16 17 18 19 20 21 22 23 24 25 26 27 28 29 30 31 32 33 34 35 36 37 38 39 40 41 42 43 44 45 46 47 48 49 50
288
ASUS45 KSLC 212010
RWRUT

UTAH REGIONAL WEATHER ROUNDUP
NATIONAL WEATHER SERVICE SALT LAKE CITY UT
100 PM MST SUN JAN 21 2018

UTZ001>011-023>025-212100-

NORTHERN UTAH

CITY           SKY/WX    TMP DP  RH WIND       PRES   REMARKS
BRIGHAM CITY   MOSUNNY   34  15  46 W3        30.20F
HILL AFB       SUNNY     29  19  63 SW3       30.18S
LOGAN          SUNNY     31  21  66 SW5       30.19F WCI  26
OGDEN          SUNNY     33  19  56 CALM      30.18F
SALT LAKE CITY PTSUNNY   36  22  56 N5        30.20F WCI  32
TOOELE VALLEY  CLOUDY    32  25  74 CALM      30.23S
WENDOVER       SUNNY     40  17  39 N12       30.21F WCI  33
HEBER CITY     MOCLDY    32  12  43 NE5       30.10F WCI  27
WEST JORDAN    CLOUDY    30  24  77 NW12      30.20S WCI  21

$$

UTZ011>015-024>027-212100-

CENTRAL/NORTHEAST UTAH

CITY           SKY/WX    TMP DP  RH WIND       PRES   REMARKS
PROVO AIRPORT  PTSUNNY   31  22  69 NW16      30.19F WCI  20
MOAB/CANYONLAN CLOUDY    36  21  54 NW17      30.01S WCI  26
DELTA          CLOUDY    28  23  80 S6        30.22F WCI  22
PRICE          MOSUNNY   30  11  45 N13G28    30.02F WCI  20
RICHFIELD      CLOUDY    28  16  59 S5        30.18S WCI  23
ROOSEVELT      SUNNY     36  18  48 SW14G23   30.02S WCI  27
VERNAL         CLOUDY    30  17  58 S3        30.02R

$$

UTZ013>016-019>022-027-212100-

SOUTHERN UTAH

CITY           SKY/WX    TMP DP  RH WIND       PRES   REMARKS
BRYCE CANYON   MOSUNNY   24  12  60 NW16G26   30.05F WCI  11
CEDAR CITY     SUNNY     28  20  71 N9        30.17F WCI  19
MILFORD        PTSUNNY   33  21  61 VRB3      30.21S
ST GEORGE      MOCLDY    45  19  35 SE8       30.22F
HANKSVILLE     SUNNY     39  10  30 W18       30.08S WCI  30
KANAB          SUNNY     37  14  38 S5        30.18S WCI  34
BLANDING         N/A     30  17  59 NW28G38   30.00S WCI  15

$$

REGIONAL REPORTS     COLORADO/ARIZONA

CITY           SKY/WX    TMP DP  RH WIND       PRES   REMARKS
CRAIG, CO      CLOUDY    24  15  68 NW17G30   29.90R WCI  11
GRAND JUNCTION CLOUDY    30  23  75 NW16      29.97R WCI  19
RIFLE, CO      CLOUDY    30  18  60 NW20G25   29.91R WCI  17
MONTROSE, CO   CLOUDY    29  20  69 NW24G31   29.93R WCI  15
CORTEZ, CO     MOSUNNY   29  19  66 NW18G29   29.92S WCI  16
COLORADO CITY    N/A     39  18  41 NW20      30.18F WCI  30
PAGE, AZ       SUNNY     43   7  22 W13G29    30.06F
GRAND CANYON   SUNNY     30  11  45 VRB7      30.08S WCI  23
KINGMAN, AZ    SUNNY    N/A N/A N/A N13       30.23F
FLAGSTAFF, AZ  SUNNY     27  10  49 W8        30.06S WCI  19

$$

REGIONAL REPORTS    NEVADA/IDAHO/WYOMING

CITY           SKY/WX    TMP DP  RH WIND       PRES   REMARKS
LAS VEGAS, NV  MOSUNNY   51  14  22 N10       30.27F
ELY, NY        SUNNY     19  12  74 SE3       30.21F
ELKO, NV       SUNNY     34  21  59 SW18      30.23F WCI  23
POCATELLO, ID  MOSUNNY   32  22  66 SW16      30.20F WCI  21
BURLEY, ID     MOSUNNY   37  24  59 W12       30.19F WCI  29
FORT BRIDGER,  CLOUDY    22  14  72 W14       30.06S WCI   9
EVANSTON, WY   FLURRIES  21  13  71 NW9       30.06S WCI  11
ROCK SPRINGS,  LGT SNOW  19  14  81 W13       30.01R WCI   6

$$




USA.gov is the U.S. government's official web portal to all federal, state and local government web resources and services.